This demonstration page uses our WeatherBlox Daily Observations layout. Learn more.

Left ArrowRight Arrow

31.84235, -102.49876

Hourly Observations for March 22, 2018

Temp ( °F °C ) Dew Point ( °F °C ) Humidity (%) Winds ( mph kmh ) Pressure ( in mb ) Visibility ( mi km ) Precip ( " mm )
12:53 am 00:53 Clear 64 17.8 43 6.1 46 46 S 14 22 29.98 1015 10 16 0.00 0.00
1:53 am 01:53 Clear 63 17.2 43 6.1 48 48 S 14 22 29.97 1015 10 16 0.00 0.00
2:53 am 02:53 Clear 61 16.1 43 6.1 52 52 S 9 15 29.97 1015 10 16 0.00 0.00
3:53 am 03:53 Clear 62 16.7 42 5.6 48 48 S 18 30 29.98 1015 10 16 0.00 0.00
4:53 am 04:53 Clear 60 15.6 42 5.6 52 52 S 15 24 29.99 1016 10 16 0.00 0.00
5:53 am 05:53 Clear 57 13.9 42 5.6 58 58 S 14 22 29.99 1016 10 16 0.00 0.00
6:53 am 06:53 Clear 56 13.3 43 6.1 62 62 S 12 19 30.01 1016 10 16 0.00 0.00
7:53 am 07:53 Sunny 54 12.2 42 5.6 64 64 S 10 17 30.02 1017 10 16 0.00 0.00
8:53 am 08:53 Sunny 56 13.3 43 6.1 62 62 S 14 22 30.03 1017 10 16 0.00 0.00
9:53 am 09:53 Sunny 61 16.1 44 6.7 54 54 S 16 26 30.05 1018 10 16 0.00 0.00
10:53 am 10:53 Sunny 67 19.4 43 6.1 42 42 S 13 20 30.05 1018 10 16 0.00 0.00
11:53 am 11:53 Sunny 74 23.3 42 5.6 32 32 SSW 12 19 30.04 1017 10 16 0.00 0.00
12:53 pm 12:53 Sunny 78 25.6 38 3.3 24 24 SW 10 17 30.03 1017 10 16 0.00 0.00
1:53 pm 13:53 Sunny 82 27.8 34 1.1 18 18 SSW 10 17 30.00 1016 10 16 0.00 0.00
2:53 pm 14:53 Sunny 86 30 30 -1.1 13 13 S 10 17 29.96 1015 10 16 0.00 0.00
3:53 pm 15:53 Sunny 88 31.1 29 -1.7 12 12 SW 8 13 29.93 1014 10 16 0.00 0.00
4:53 pm 16:53 Sunny 90 32.2 27 -2.8 10 10 SW 12 19 29.91 1013 10 16 0.00 0.00
5:53 pm 17:53 Sunny 90 32.2 24 -4.4 9 9 SSW 7 11 29.89 1012 10 16 0.00 0.00
6:53 pm 18:53 Sunny 89 31.7 22 -5.6 8 8 SW 14 22 29.89 1012 10 16 0.00 0.00
7:53 pm 19:53 Sunny 83 28.3 23 -5 11 11 SSW 7 11 29.91 1013 10 16 0.00 0.00
8:53 pm 20:53 Clear 77 25 47 8.3 35 35 S 16 26 29.93 1014 10 16 0.00 0.00
9:53 pm 21:53 Clear 73 22.8 49 9.4 43 43 S 15 24 29.96 1015 10 16 0.00 0.00
10:53 pm 22:53 Clear 71 21.7 51 10.6 49 49 S 18 30 29.96 1015 10 16 0.00 0.00
11:53 pm 23:53 Clear 68 20 53 11.7 59 59 S 17 28 29.97 1015 10 16 0.00 0.00

Powered by AerisWeather